Location: Newark
(52.1333°N, 0.4500°W)
Time: 21:21:11
(UTC+00:00)

ISS - Visible Passes

Search period start: 19 November 2019 00:00
Search period end: 29 November 2019 00:00
Orbit: 412 x 421 km, 51.6° (Epoch: 20 November)

Date Brightness Start Highest point End Pass type
(mag) Time Alt. Az. Time Alt. Az. Time Alt. Az.
23 Nov -1.6 18:15:07 10° SSW 18:16:37 18° S 18:16:37 18° S visible
24 Nov -1.6 17:27:33 10° S 17:29:28 14° SE 17:30:18 13° SE visible
24 Nov -1.0 19:02:24 10° SW 19:03:12 16° SW 19:03:12 16° SW visible
25 Nov -2.7 18:14:10 10° SW 18:16:48 35° S 18:16:48 35° S visible
26 Nov -2.4 17:26:04 10° SSW 17:28:59 27° SSE 17:30:21 20° ESE visible
26 Nov -1.1 19:02:04 10° WSW 19:03:15 20° WSW 19:03:15 20° WSW visible
27 Nov -1.8 16:38:12 10° SSW 16:40:41 20° SE 16:43:11 10° E visible
27 Nov -3.4 18:13:41 10° WSW 18:16:45 58° S 18:16:45 58° S visible
28 Nov -3.2 17:25:21 10° SW 17:28:34 47° SSE 17:30:13 25° E visible
28 Nov -1.2 19:01:50 10° W 19:03:06 21° W 19:03:06 21° W visible
